Date,TemperatureHighF,TemperatureAvgF,TemperatureLowF,DewpointHighF,DewpointAvgF,DewpointLowF,HumidityHigh,HumidityAvg,HumidityLow,PressureMaxIn,PressureMinIn,WindSpeedMaxMPH,WindSpeedAvgMPH,GustSpeedMaxMPH,PrecipitationSumIn
2013-1-14,49.8,42.7,37.0,31.1,28.4,26.0,65,57,47,30.00,29.89,2,1,6,1.49
2013-1-15,31.5,28.0,25.3,23.8,22.2,20.9,84,79,73,30.07,29.97,2,1,5,0.00
2013-1-16,34.7,33.4,31.6,32.7,31.3,28.7,94,92,85,29.75,29.59,4,2,11,0.25
2013-1-17,32.7,32.0,31.1,28.4,26.7,26.1,84,81,78,30.81,29.71,4,1,7,0.00
2013-1-18,38.5,32.8,18.7,25.8,14.0,6.3,83,46,37,30.51,30.18,10,3,16,0.00
2013-1-19,57.4,48.7,30.7,19.6,16.2,11.7,52,29,19,30.29,30.04,8,6,19,0.00
2013-1-20,46.4,40.2,36.1,30.1,17.6,10.8,57,40,33,30.10,29.85,10,7,25,0.02
2013-1-21,29.1,24.6,21.2,18.1,14.9,11.8,79,66,53,30.13,29.93,9,3,25,0.00
2013-1-22,11.5,7.8,6.1,1.5,-2.2,-3.7,76,63,58,30.24,30.07,6,4,19,0.00
2013-1-23,18.5,11.8,4.1,9.4,0.9,-2.4,81,62,45,30.31,30.09,4,2,12,0.00
2013-1-24,14.2,13.5,12.9,10.2,9.2,8.0,86,83,80,30.32,30.07,3,1,7,0.00
2013-1-25,20.3,15.2,10.6,14.0,7.5,0.6,81,71,61,30.51,30.08,2,0,4,0.00
2013-1-26,28.4,23.6,18.0,22.0,19.0,14.7,88,82,73,30.24,30.11,3,1,8,0.00
2013-1-27,48.9,27.0,9.9,20.7,15.0,6.8,87,64,28,30.54,30.34,2,0,4,0.13
2013-1-28,46.4,40.3,31.6,44.2,37.8,20.4,94,91,62,30.32,30.06,8,3,14,0.26
2013-1-29,68.0,54.6,49.8,54.8,50.7,48.6,97,88,61,30.11,29.92,20,4,42,0.01
2013-1-30,62.6,62.6,62.6,50.7,50.7,50.7,65,65,65,29.65,29.59,3,3,5,0.01
2013-1-31,30.6,26.2,21.6,21.6,16.7,11.6,86,67,53,30.20,29.92,9,5,27,0.86
2013-2-1,22.3,17.3,14.4,18.3,10.2,5.5,85,73,64,30.40,30.16,8,5,14,0.00
2013-2-2,24.1,18.6,7.5,20.6,12.0,1.1,91,75,65,30.65,30.31,7,4,16,0.00
2013-2-3,29.3,24.8,21.4,23.5,20.1,13.5,91,82,71,30.30,30.16,7,2,15,0.00
2013-2-4,30.7,22.4,16.7,21.2,16.2,9.8,87,77,54,30.41,30.22,4,2,8,0.00
2013-2-5,33.8,29.4,26.8,29.2,26.3,24.3,92,88,79,30.30,30.17,3,1,6,0.00
2013-2-6,39.7,31.2,27.3,25.7,22.5,16.8,92,70,45,30.63,30.29,5,2,12,0.02
2013-2-7,49.8,37.5,16.5,28.8,24.5,12.5,85,61,44,30.64,30.43,4,1,9,0.12
2013-2-8,40.1,34.1,25.9,35.5,29.6,20.6,92,84,72,30.47,30.16,10,2,19,0.14
2013-2-9,42.6,28.6,21.9,19.9,17.0,15.1,80,63,38,30.72,30.48,4,1,11,0.00
2013-2-10,61.5,41.6,16.3,25.4,18.3,11.3,81,45,18,31.23,30.46,3,1,6,0.00
2013-2-11,65.1,58.9,39.0,47.6,35.5,25.6,90,45,25,30.33,30.02,13,7,27,0.06
2013-2-12,49.8,40.7,33.8,28.2,25.3,23.4,67,55,39,30.42,30.26,9,4,17,0.00
2013-2-13,43.0,35.2,27.7,30.5,28.2,23.2,92,77,55,30.19,30.03,2,0,2,0.00
2013-2-14,42.8,35.4,27.3,32.6,29.3,23.7,90,79,64,30.32,30.21,7,3,16,0.20
2013-2-15,41.4,37.6,32.2,33.1,28.6,25.3,86,70,56,30.39,30.26,6,3,13,0.00
2013-2-16,42.6,29.7,22.6,25.9,18.5,12.7,88,64,41,30.39,30.27,4,1,9,0.08
2013-2-17,23.7,18.4,15.6,17.8,13.6,11.4,87,81,63,30.39,30.24,6,3,15,0.00
2013-2-18,46.9,30.8,9.1,22.2,12.1,2.5,76,48,32,30.63,30.41,5,3,11,0.00
2013-2-19,44.2,39.1,32.2,37.6,31.9,23.5,86,76,48,30.24,30.03,11,6,24,0.17
2013-2-20,24.3,19.6,17.8,16.8,11.4,8.4,85,70,57,30.54,30.29,8,5,22,0.00
2013-2-21,37.4,24.5,18.3,16.9,14.1,10.9,80,65,39,30.66,30.51,5,3,13,0.00
2013-2-22,37.9,32.9,21.0,32.6,26.6,13.4,90,78,53,30.60,30.34,7,3,15,0.01
2013-2-23,53.8,40.3,32.7,39.7,33.4,28.4,85,77,57,30.34,30.21,2,0,6,0.00
2013-2-24,31.8,30.0,28.4,28.7,22.9,20.7,88,75,70,30.36,30.21,6,3,15,0.00
2013-2-25,43.7,30.6,23.0,27.7,23.0,18.6,85,74,51,30.57,30.48,1,0,3,0.00
2013-2-26,40.6,37.0,33.4,34.8,26.8,19.5,90,68,49,30.41,29.95,8,3,13,0.69
2013-2-27,43.2,38.7,34.0,38.6,35.5,30.8,94,88,75,30.04,29.93,7,2,15,0.22
2013-2-28,33.8,32.3,32.0,30.9,28.9,28.4,90,87,85,30.02,29.99,2,0,5,0.00
2013-3-1,32.5,30.5,29.7,29.8,26.6,25.6,91,85,77,30.25,30.15,2,0,7,0.00
2013-3-2,30.0,26.1,24.6,21.8,20.0,18.0,87,77,67,30.30,30.24,4,1,8,0.00
2013-3-3,28.0,25.5,23.0,21.8,18.7,15.9,88,75,64,30.34,30.25,8,4,14,0.00
2013-3-4,43.0,28.9,21.0,21.5,17.0,12.5,85,63,37,30.45,30.34,7,3,14,0.00
2013-3-5,55.0,35.7,18.9,27.4,17.3,11.8,84,53,19,30.43,30.05,8,1,12,0.00
2013-3-6,48.9,36.6,31.3,33.7,28.6,25.6,92,74,48,30.44,30.04,5,1,9,0.20
2013-3-7,46.4,38.6,32.7,30.7,28.3,25.3,86,67,49,30.57,30.44,5,3,13,0.00
2013-3-8,39.9,33.0,27.5,27.6,25.6,23.1,84,74,60,30.73,30.60,6,2,11,0.00
2013-3-9,69.8,48.0,22.3,33.3,27.1,19.7,91,52,18,30.74,30.58,2,0,4,0.00
2013-3-10,75.6,57.5,43.9,30.8,25.7,19.6,39,30,17,30.53,30.37,9,3,14,0.00
2013-3-11,64.8,56.9,51.4,47.7,32.9,26.9,87,42,26,30.37,30.08,13,5,21,0.07
2013-3-12,51.3,39.2,36.9,48.1,32.0,26.4,90,76,64,30.34,30.13,5,3,16,0.21
2013-3-13,40.5,32.7,26.8,30.3,25.2,17.2,90,74,47,30.46,30.27,9,5,24,0.04
2013-3-14,41.2,29.2,24.6,19.3,16.9,15.2,73,61,36,30.54,30.46,10,5,22,0.00
2013-3-15,36.0,29.4,26.2,21.6,19.6,17.4,72,66,56,30.48,30.34,4,3,11,0.00
2013-3-16,41.4,37.4,34.2,37.8,34.4,30.8,92,89,79,30.30,29.99,4,1,8,0.04
2013-3-17,34.2,29.8,28.0,31.0,23.1,21.5,89,76,67,30.50,30.31,4,0,6,0.00
2013-3-18,42.1,34.2,29.8,35.7,28.9,21.2,90,81,61,30.50,30.06,9,5,19,0.37
2013-3-19,48.9,41.4,34.7,41.2,25.5,15.7,94,55,31,30.25,30.05,12,6,34,0.09
2013-3-20,41.0,32.4,26.4,19.6,16.8,14.9,65,53,36,30.32,30.16,9,3,15,0.00
2013-3-21,29.7,24.9,18.0,18.5,9.1,5.7,84,51,40,30.24,30.19,8,4,16,0.00
2013-3-22,38.3,29.5,24.6,19.9,18.3,16.7,80,63,45,30.36,30.23,8,4,19,0.00
2013-3-23,53.6,39.7,19.2,25.8,21.1,14.3,85,51,26,30.38,30.32,5,2,12,0.00
2013-3-24,44.2,33.8,25.5,29.0,22.2,18.4,88,64,40,30.34,29.89,8,1,10,0.00
2013-3-25,38.5,33.3,30.4,33.8,30.8,27.2,95,91,76,30.08,29.82,5,2,10,0.37
2013-3-26,46.6,38.9,31.1,33.3,30.3,27.9,94,72,53,30.41,30.09,6,3,14,0.06
2013-3-27,44.1,37.3,31.6,31.8,28.1,23.2,93,72,47,30.48,30.40,8,4,18,0.07
2013-3-28,44.2,38.3,32.9,31.1,29.2,27.1,89,70,54,30.60,30.47,7,3,13,0.01
2013-3-29,59.0,46.4,34.9,35.5,27.6,18.8,81,51,23,30.61,30.50,5,2,13,0.00
2013-3-30,64.9,41.9,27.1,28.8,22.3,16.1,77,51,19,30.60,30.40,3,1,6,0.00
2013-3-31,52.9,47.8,43.0,46.0,38.4,18.6,90,72,36,30.38,30.09,5,2,12,0.12
2013-4-1,46.9,41.3,32.7,41.9,28.6,11.6,89,63,27,30.28,30.08,8,4,19,0.05
2013-4-2,43.0,33.5,27.1,19.9,14.5,11.3,74,47,28,30.52,30.36,7,3,14,0.00
2013-4-3,43.2,33.2,25.9,20.3,12.4,6.7,65,44,23,30.74,30.52,8,2,13,0.00
2013-4-4,58.6,38.3,18.1,18.5,12.0,2.4,76,41,11,30.73,30.33,3,1,6,0.00
2013-4-5,59.2,45.9,34.7,30.5,22.6,18.6,64,41,22,30.51,30.29,8,2,14,0.00
2013-4-6,43.7,31.0,24.6,25.8,21.2,17.5,75,67,48,30.63,30.52,2,0,3,0.00
2013-4-7,74.8,65.0,52.3,47.5,39.5,17.5,67,40,25,30.38,30.25,8,5,20,0.00
2013-4-8,76.3,60.4,46.9,50.7,44.6,40.0,79,59,31,30.41,30.28,6,2,11,0.00
2013-4-9,70.5,63.9,59.7,52.3,50.4,47.8,72,62,50,30.47,30.34,4,1,7,0.00
2013-4-10,81.7,70.4,59.5,61.5,55.6,50.6,92,61,44,30.35,30.18,8,3,16,0.25
2013-4-11,78.8,65.8,56.5,58.8,56.2,51.8,94,73,49,30.27,29.99,4,2,10,0.00
2013-4-12,66.6,59.5,45.3,58.7,49.6,32.6,94,71,47,30.23,29.91,12,5,19,0.54
2013-4-13,59.9,46.9,37.8,35.2,32.6,30.8,76,59,38,30.36,30.22,7,3,13,0.00
2013-4-14,64.2,48.3,33.1,38.0,30.9,25.8,79,53,31,30.52,30.38,5,2,11,0.00
2013-4-15,66.7,61.3,55.4,49.3,43.8,35.2,66,53,41,30.48,30.35,10,5,17,0.00
2013-4-16,82.4,66.3,57.0,58.3,53.4,47.9,94,65,40,30.57,30.41,11,4,16,0.70
2013-4-17,58.3,54.3,52.7,56.6,52.1,48.3,95,92,85,30.61,30.51,2,1,4,0.01
2013-4-18,85.6,72.9,61.5,61.2,56.6,53.1,79,59,37,30.49,30.19,9,6,14,0.00
2013-4-19,73.6,60.1,44.2,59.2,48.2,30.0,85,65,52,30.23,29.90,11,5,17,0.12
2013-4-20,43.9,38.1,36.1,31.8,29.2,27.6,80,70,56,30.36,30.23,7,4,16,0.00
2013-4-21,44.6,34.5,26.1,26.3,23.8,20.7,82,66,43,30.93,30.74,2,1,6,0.00
2013-4-22,70.5,54.0,42.3,31.0,26.0,15.8,49,35,14,30.81,30.64,6,4,14,0.00
2013-4-23,52.3,43.8,38.7,35.2,32.2,30.1,72,64,51,30.64,30.56,5,2,9,0.00
2013-4-24,72.9,55.9,39.2,55.5,44.0,33.1,90,66,46,30.55,30.15,12,4,24,0.35
2013-4-25,62.6,47.6,34.2,37.7,32.6,26.3,90,60,30,30.71,30.54,7,2,17,0.00
2013-4-26,41.9,38.4,36.1,36.2,34.0,32.4,87,84,80,30.77,30.70,1,0,2,0.00
2013-4-27,59.4,43.3,35.6,38.1,33.0,27.8,81,68,45,30.74,30.71,0,0,2,0.00
2013-4-28,60.4,56.9,54.5,52.0,48.2,39.0,87,73,45,30.53,30.33,8,5,17,0.14
2013-4-29,63.9,57.7,54.5,51.9,49.2,46.5,79,73,65,30.36,30.32,4,2,9,0.00
2013-4-30,80.4,63.9,54.7,56.3,51.5,49.0,86,66,40,30.57,30.40,7,3,9,0.00
2013-5-1,57.6,55.2,53.4,48.8,47.2,45.9,77,74,68,30.66,30.56,4,2,9,0.00
2013-5-2,83.5,67.0,52.2,40.7,32.7,19.2,55,31,10,30.72,30.58,6,2,9,0.00
2013-5-3,65.5,56.7,50.5,38.1,34.3,29.8,51,43,35,30.63,30.59,4,2,12,0.00
2013-5-4,56.8,50.5,44.8,41.4,36.8,33.4,68,59,53,30.58,30.56,4,1,5,0.00
2013-5-5,79.7,62.8,48.0,39.5,30.9,16.1,69,37,10,30.52,30.40,6,2,11,0.00
2013-5-6,60.8,52.0,46.4,41.0,38.0,35.9,70,59,48,31.22,30.43,3,2,8,0.00
2013-5-7,62.2,58.4,56.3,55.7,53.3,52.0,89,83,76,30.40,30.36,2,0,4,0.02
2013-5-8,61.0,56.7,52.5,55.7,52.0,49.8,93,84,70,30.37,30.29,4,2,8,0.22
2013-5-9,83.5,64.4,52.5,59.8,53.9,50.5,95,72,35,30.37,30.28,4,1,8,0.19
2013-5-10,70.0,61.7,59.4,56.0,54.1,52.8,79,76,74,30.38,30.34,3,2,6,0.00
2013-5-11,62.8,57.0,51.8,59.2,52.7,45.8,96,86,75,30.22,30.16,3,2,12,0.30
2013-5-12,58.1,48.6,39.7,48.1,32.3,26.1,86,55,38,30.31,30.20,8,4,20,0.00
2013-5-13,64.4,49.1,30.0,32.4,24.7,16.2,73,40,24,30.52,30.41,6,3,14,0.00
2013-5-14,49.5,38.2,31.1,36.6,29.7,25.2,84,72,54,30.55,30.52,2,1,6,0.00
2013-5-15,65.1,61.3,57.0,54.3,48.3,38.2,69,63,49,30.27,30.19,7,4,14,0.00
2013-5-16,74.3,65.9,61.5,62.6,59.8,57.2,93,82,58,30.26,30.17,4,2,9,0.26
2013-5-17,88.5,71.4,59.4,61.6,56.7,48.1,95,65,25,30.48,30.36,3,1,6,0.00
2013-5-18,92.8,76.3,54.7,62.4,56.3,48.7,82,52,29,30.51,30.41,5,1,8,0.00
2013-5-19,81.3,71.6,59.5,64.1,60.4,55.7,87,69,54,30.49,30.38,5,2,12,0.00
2013-5-20,92.3,75.8,61.7,68.5,63.4,57.8,88,67,43,30.43,30.31,6,2,11,0.00
2013-5-21,76.3,70.5,67.1,67.9,65.8,64.3,92,85,77,30.36,30.32,4,2,7,0.00
2013-5-22,74.5,69.9,66.7,63.1,61.5,60.0,79,75,65,30.30,30.23,4,2,9,0.00
2013-5-23,77.9,69.8,62.1,64.7,62.3,60.0,94,78,57,30.25,30.19,6,3,12,0.25
2013-5-24,52.0,44.6,42.1,50.0,42.0,38.3,93,91,87,30.48,30.26,6,3,11,0.08
2013-5-25,58.8,47.6,32.5,39.9,35.8,29.4,93,65,43,30.66,30.62,5,2,12,0.00
2013-5-26,73.9,54.8,36.7,41.0,35.0,31.2,87,52,24,30.64,30.57,4,1,8,0.00
2013-5-27,64.6,55.5,39.7,48.6,42.7,35.1,87,63,45,30.63,30.48,4,1,6,0.00
2013-5-28,81.1,70.5,54.3,68.0,62.4,47.8,94,76,62,30.47,30.40,6,2,13,0.39
2013-5-29,72.7,69.4,67.6,60.3,59.1,58.2,73,70,64,30.47,30.40,4,3,11,0.00
2013-5-30,93.4,78.8,66.0,69.3,62.8,59.1,79,60,36,30.58,30.48,4,1,8,0.00
2013-5-31,92.3,78.7,66.4,68.7,63.8,61.5,89,63,40,30.52,30.38,5,2,11,0.00
2013-6-1,89.6,78.2,66.7,67.1,64.7,60.7,88,65,46,30.41,30.23,5,3,12,0.01
2013-6-2,82.8,74.6,68.0,66.7,62.9,58.9,89,68,47,30.26,30.19,8,2,15,0.02
2013-6-3,69.6,64.2,53.6,63.8,54.7,41.7,89,72,54,30.43,30.25,3,1,8,0.00
2013-6-4,83.8,62.4,41.5,48.9,43.9,37.6,88,55,26,30.54,30.43,2,0,5,0.00
2013-6-5,65.8,57.6,50.2,49.9,47.8,45.5,84,70,55,30.51,30.48,2,0,8,0.00
2013-6-6,74.8,66.2,63.5,65.5,62.0,55.7,94,87,66,30.33,30.18,7,4,13,0.72
2013-6-7,68.2,63.9,59.7,64.2,61.1,55.5,96,91,81,30.22,30.13,4,1,8,0.02
2013-6-8,62.4,57.4,56.5,57.8,53.1,52.3,86,86,84,30.30,30.23,3,1,5,0.00
2013-6-9,93.7,80.9,56.8,65.1,60.9,53.3,90,53,35,30.55,30.41,3,1,9,0.00
2013-6-10,79.0,71.9,67.8,70.5,67.0,63.7,91,85,74,30.41,30.18,5,3,15,0.44
2013-6-11,81.0,69.0,64.2,67.5,62.9,58.4,93,82,54,30.28,30.18,6,2,11,0.04
2013-6-12,70.5,65.8,64.6,68.1,62.4,61.6,92,89,81,30.27,30.25,2,1,4,0.00
2013-6-13,74.7,68.8,61.7,70.3,63.1,55.1,98,83,69,30.17,29.95,8,3,13,2.21
2013-6-14,68.5,58.9,55.9,56.5,54.7,50.6,90,86,80,30.31,30.17,2,0,4,0.00
2013-6-15,83.1,68.2,52.3,58.8,52.4,45.1,94,62,31,30.50,30.39,4,1,8,0.00
2013-6-16,77.5,68.1,62.1,67.7,62.1,55.3,92,81,68,30.40,30.30,4,2,10,0.26
2013-6-17,89.8,79.7,66.2,67.6,63.8,54.3,93,61,38,30.36,30.30,3,1,8,0.00
2013-6-18,70.0,66.6,63.5,62.5,61.7,60.5,91,84,75,30.31,30.26,1,0,2,0.00
2013-6-19,65.5,60.5,56.1,59.5,54.5,52.5,89,81,71,30.44,30.32,2,1,6,0.00
2013-6-20,90.1,70.4,50.7,58.8,53.0,47.9,90,60,28,30.60,30.52,2,0,4,0.00
2013-6-21,85.8,69.5,56.1,64.8,58.2,53.2,90,71,38,30.63,30.59,2,0,4,0.00
2013-6-22,91.6,77.7,63.9,72.0,65.5,60.9,90,68,47,30.59,30.46,3,1,6,0.00
2013-6-23,73.8,70.4,67.8,66.1,64.6,59.1,86,82,76,30.54,30.49,3,1,5,0.00
2013-6-24,98.8,85.0,68.7,71.4,67.8,61.3,88,58,41,30.53,30.40,5,2,11,0.00
2013-6-25,80.8,71.5,68.9,67.9,66.8,60.9,90,85,76,30.44,30.38,3,2,8,0.00
2013-6-26,87.8,73.9,65.1,71.2,67.4,63.8,99,82,49,30.37,30.22,5,2,8,1.29
2013-6-27,80.6,72.4,68.9,73.7,68.4,66.5,96,88,70,30.21,30.05,3,1,10,0.64
2013-6-28,70.7,67.9,64.6,69.1,66.9,62.8,99,97,90,30.06,29.98,4,1,8,0.00
2013-6-29,88.7,74.0,59.9,67.7,64.1,58.8,98,73,49,30.09,29.94,7,2,14,0.14
2013-6-30,67.1,64.2,61.9,66.0,63.0,60.7,97,96,94,30.15,30.08,0,0,2,0.00
2013-7-1,89.8,73.9,66.7,70.5,66.7,63.7,94,80,52,30.34,30.21,2,0,4,0.38
2013-7-2,76.8,71.1,66.9,70.4,68.1,66.0,97,91,80,30.40,30.33,2,0,4,0.11
2013-7-3,75.6,73.1,70.3,67.9,66.1,64.6,83,79,75,30.53,30.45,3,2,8,0.00
2013-7-4,100.8,84.3,70.0,71.7,69.0,62.8,90,62,36,30.61,30.50,5,2,11,0.01
2013-7-5,75.7,71.8,69.1,69.7,68.4,65.5,97,89,81,30.55,30.52,2,0,5,0.00
2013-7-6,85.1,75.8,70.7,72.9,70.3,67.8,96,83,64,30.57,30.53,3,2,8,0.00
2013-7-7,77.2,72.5,69.1,70.2,68.0,65.0,92,86,79,30.50,30.48,3,1,6,0.00
2013-7-8,78.1,70.5,67.5,67.5,65.6,61.4,97,85,68,30.52,30.45,3,2,8,0.00
2013-7-9,73.4,69.0,67.8,69.1,68.3,65.0,99,98,81,30.50,30.44,4,2,9,0.87
2013-7-10,89.6,71.5,66.0,78.9,68.9,64.5,99,92,64,30.41,30.22,13,2,21,1.72
2013-7-11,66.2,65.8,65.3,65.6,65.0,64.1,98,97,96,30.35,30.28,2,0,3,0.00
2013-7-12,68.2,62.2,57.9,62.0,58.5,55.6,92,88,81,30.44,30.37,0,0,3,0.00
2013-7-13,89.4,78.0,62.8,69.8,66.0,59.8,92,68,50,30.56,30.47,3,1,7,0.00
2013-7-14,75.9,74.0,72.5,67.6,67.1,62.1,83,79,73,30.66,30.60,4,2,7,0.00
2013-7-15,85.6,76.7,70.9,71.6,69.2,66.7,90,78,61,30.73,30.66,2,1,6,0.00
2013-7-16,85.6,76.0,71.4,75.0,71.4,69.2,93,86,70,30.71,30.65,1,0,4,0.00
2013-7-17,98.8,78.0,70.7,77.9,73.0,69.5,99,86,49,30.68,30.55,4,0,8,0.08
2013-7-18,97.7,82.1,71.4,81.4,74.4,69.6,99,80,49,30.57,30.42,2,1,6,0.00
2013-7-19,94.8,79.0,72.7,77.2,73.5,68.9,96,84,51,30.43,30.27,5,2,10,0.01
2013-7-20,88.5,75.4,71.8,77.6,70.0,68.5,91,84,69,30.32,30.26,4,2,7,0.01
2013-7-21,90.7,75.3,69.1,72.2,68.7,66.6,94,82,54,30.37,30.30,4,1,7,0.04
2013-7-22,82.2,74.0,65.7,73.2,69.8,63.7,97,87,74,30.34,30.29,2,0,4,0.00
2013-7-23,72.5,69.8,65.8,68.4,67.0,60.6,99,91,82,30.18,30.13,3,1,9,0.01
2013-7-24,67.1,64.3,61.7,65.1,58.7,53.9,97,82,68,30.28,30.14,2,1,6,0.01
2013-7-26,55.6,54.6,53.6,53.7,52.9,51.9,95,94,94,28.85,28.84,0,0,1,0.00
2013-7-27,76.6,67.3,61.7,70.4,63.6,57.0,97,88,76,30.38,30.25,4,1,6,0.45
2013-7-28,82.6,70.0,60.1,67.3,61.0,55.3,97,76,43,30.41,30.25,5,2,9,0.26
2013-7-29,77.0,65.7,55.2,58.3,54.6,51.9,89,70,48,30.56,30.42,4,2,6,0.00
2013-7-30,86.7,69.5,54.7,61.3,57.4,52.7,95,69,40,30.61,30.53,2,0,4,0.00
2013-7-31,84.9,69.6,58.3,67.9,62.3,56.0,93,79,52,30.54,30.35,2,0,5,0.01
2013-8-1,88.3,72.6,65.7,68.7,64.3,60.4,98,78,40,30.34,30.25,3,1,6,0.06
2013-8-2,85.5,74.6,60.1,66.1,58.7,52.4,97,60,38,30.38,30.29,5,2,16,0.00
2013-8-3,80.1,71.0,63.7,68.6,65.2,59.5,96,83,65,30.37,30.31,4,2,11,0.18
2013-8-4,59.5,57.7,55.2,59.1,56.7,54.7,99,97,90,30.42,30.36,0,0,1,0.02
2013-8-5,82.6,66.1,53.1,59.4,54.3,51.7,97,69,40,30.51,30.40,2,0,4,0.00
2013-8-6,68.0,59.3,55.4,63.0,56.1,53.4,93,89,80,30.41,30.38,0,0,2,0.00
2013-8-7,75.4,68.5,63.5,67.5,63.7,59.6,91,85,77,30.37,30.35,2,1,6,0.00
2013-8-8,77.0,70.5,66.4,70.8,67.3,64.9,96,90,82,30.37,30.34,2,1,6,0.01
2013-8-9,78.8,73.2,72.0,74.3,72.0,66.6,99,96,91,30.31,30.28,2,1,7,0.11
2013-8-10,84.7,75.8,63.1,67.9,64.2,60.8,97,69,51,30.48,30.40,2,0,5,0.00
2013-8-11,94.6,80.3,61.7,69.5,65.4,57.7,94,62,45,30.51,30.41,2,0,7,0.00
2013-8-12,78.3,70.5,66.4,70.1,68.2,65.5,99,93,71,30.45,30.42,2,0,4,0.00
2013-8-13,72.0,67.9,66.0,67.2,65.7,63.7,96,93,84,30.27,30.19,4,2,8,0.01
2013-8-14,62.4,55.5,50.4,51.9,49.8,47.9,93,82,72,30.43,30.35,2,1,7,0.00
2013-8-15,77.4,60.5,47.7,58.7,51.7,46.3,96,77,35,30.57,30.51,3,0,8,0.00
2013-8-16,71.6,58.5,51.8,60.2,53.9,49.3,93,85,59,30.52,30.48,0,0,2,0.00
2013-8-17,82.9,68.8,54.7,60.7,55.3,50.4,92,65,35,30.62,30.55,4,1,8,0.00
2013-8-18,65.1,64.1,63.1,58.8,58.0,56.6,84,81,74,30.59,30.54,2,0,4,0.00
2013-8-19,89.8,74.7,65.3,68.8,66.5,62.9,98,78,46,30.52,30.45,2,0,6,0.26
2013-8-20,70.5,63.8,59.0,66.8,62.4,58.4,99,95,83,30.57,30.48,2,0,4,0.00
2013-8-21,94.6,74.8,58.3,69.5,63.2,56.6,95,71,37,30.57,30.44,3,1,6,0.00
2013-8-22,86.9,77.9,65.5,72.2,68.8,64.3,98,75,60,30.49,30.38,4,2,18,0.09
2013-8-23,93.2,78.5,67.3,69.9,66.1,59.1,99,70,34,30.47,30.40,3,0,8,0.89
2013-8-24,83.8,72.7,56.3,64.8,60.1,54.0,93,66,49,30.67,30.52,2,0,5,0.00
2013-8-25,88.3,78.6,58.1,65.7,61.9,54.2,90,58,41,30.74,30.62,4,2,11,0.00
2013-8-26,66.6,62.7,61.3,61.2,60.0,59.3,93,91,83,30.63,30.58,3,2,8,0.00
2013-8-27,81.0,75.4,69.6,71.5,69.2,65.8,93,82,72,30.41,30.38,3,1,7,0.00
2013-8-28,72.7,70.7,69.6,72.0,70.3,69.4,99,99,96,30.34,30.27,3,1,5,0.77
2013-8-29,77.0,71.6,69.6,72.3,70.5,69.3,99,97,88,30.40,30.30,0,0,2,0.00
2013-8-30,74.3,68.7,65.1,68.7,66.8,64.2,99,94,82,30.40,30.38,0,0,1,0.00
2013-8-31,93.0,83.0,70.3,73.3,70.6,68.5,96,68,49,30.26,30.17,4,2,11,0.00
2013-9-1,85.5,74.0,70.2,72.8,69.9,68.2,96,88,66,30.25,30.18,4,2,7,0.00
2013-9-2,71.2,69.5,69.1,68.9,68.1,67.1,98,95,89,30.20,30.18,3,2,5,0.00
2013-9-3,79.3,67.3,57.6,65.0,59.0,54.0,99,77,44,30.42,30.21,4,1,9,0.01
2013-9-4,57.0,54.1,51.8,56.6,53.5,51.5,99,98,90,30.50,30.41,3,1,7,0.00
2013-9-6,87.4,70.5,46.0,51.9,46.7,39.9,94,48,21,30.64,30.50,2,0,4,0.00
2013-9-7,87.3,74.4,46.9,56.9,53.7,44.9,96,51,31,30.50,30.34,3,1,8,0.00
2013-9-8,87.8,74.7,63.1,69.5,64.2,57.8,86,70,55,30.36,30.30,3,1,7,0.00
2013-9-9,75.6,64.5,57.4,64.8,59.3,55.3,93,84,71,30.48,30.43,3,1,9,0.00
2013-9-10,73.6,71.5,70.0,69.3,68.3,67.4,92,89,86,30.50,30.43,4,3,9,0.00
2013-9-11,79.0,75.0,73.4,73.4,72.1,71.1,94,91,84,30.54,30.50,4,2,9,0.00
2013-9-12,79.9,73.7,67.5,72.2,69.9,65.3,99,88,75,30.40,30.22,6,2,17,0.27
2013-9-13,62.4,59.6,57.4,61.3,57.1,56.3,97,92,85,30.26,30.19,2,1,5,0.02
2013-9-14,59.2,53.6,50.5,47.4,45.2,41.1,88,74,57,30.52,30.40,2,1,5,0.00
2013-9-15,49.6,46.1,43.2,45.9,44.0,41.8,95,92,86,30.54,30.50,0,0,2,0.00
2013-9-16,66.6,58.4,55.0,58.8,56.4,54.2,99,93,72,30.56,30.44,2,0,3,0.33
2013-9-17,60.1,49.2,45.0,51.3,46.8,43.9,97,92,75,30.74,30.66,0,0,4,0.00
2013-9-18,63.9,51.2,45.9,48.6,43.3,39.3,84,75,57,30.63,30.59,2,0,4,0.00
2013-9-19,64.8,61.4,60.1,63.1,59.2,54.4,97,93,80,30.52,30.48,2,0,4,0.00
2013-9-20,69.3,63.6,59.4,64.6,60.8,57.6,94,91,85,30.42,30.37,2,1,5,0.00
2013-9-21,71.6,66.8,59.7,66.5,63.3,58.8,98,89,80,30.22,30.07,6,2,17,1.20
2013-9-22,71.6,59.7,53.6,57.8,50.1,45.8,99,72,45,30.38,30.17,4,1,10,0.01
2013-9-23,63.0,53.5,43.7,48.9,45.1,41.3,93,74,52,30.51,30.39,2,0,5,0.00
2013-9-24,84.7,51.2,37.0,51.4,42.8,36.3,99,80,26,30.48,30.33,2,0,4,0.00
2013-9-25,58.3,48.6,45.0,52.0,46.3,43.3,95,92,80,30.34,30.29,0,0,2,0.00
2013-9-26,63.9,51.1,47.1,56.7,49.1,46.0,96,93,79,30.38,30.31,0,0,2,0.00
2013-9-27,63.3,51.3,47.7,58.3,49.2,46.0,95,93,80,30.53,30.44,0,0,1,0.00
2013-9-28,73.8,59.6,48.7,61.3,52.9,47.6,97,81,52,30.63,30.56,4,1,8,0.00
2013-9-29,86.5,72.9,52.7,58.3,54.3,47.0,82,54,37,30.52,30.38,2,1,8,0.00
2013-9-30,74.1,61.5,53.4,62.5,55.7,50.1,92,81,67,30.43,30.36,3,1,5,0.00
2013-10-1,65.8,60.7,59.9,60.7,59.1,58.5,96,95,83,30.45,30.39,3,2,6,0.00
2013-10-2,64.0,60.9,59.4,60.6,59.0,58.2,97,93,87,30.47,30.42,4,2,7,0.00
2013-10-3,86.0,70.7,61.2,66.9,63.9,60.9,99,81,53,30.48,30.40,5,1,9,0.04
2013-10-4,85.5,73.3,63.5,70.1,67.5,61.8,99,84,57,30.50,30.42,3,2,10,0.00
2013-10-5,93.9,76.2,64.0,71.2,67.4,61.1,96,76,50,30.48,30.37,5,1,15,0.01
2013-10-6,78.1,71.7,68.2,67.0,65.2,63.3,93,80,66,30.37,30.31,3,1,7,0.00
2013-10-7,72.5,59.0,46.0,60.0,47.5,39.9,99,67,48,30.34,30.09,7,3,20,0.35
2013-10-8,79.0,57.3,41.4,51.9,44.8,39.8,99,68,32,30.66,30.49,1,0,6,0.00
2013-10-9,76.3,56.5,41.4,50.0,42.3,38.7,94,64,31,30.68,30.60,2,0,4,0.00
2013-10-10,78.8,55.2,45.9,49.2,43.7,39.3,85,68,34,30.58,30.46,1,0,3,0.00
2013-10-11,59.0,54.6,51.6,57.0,52.3,47.4,98,92,78,30.46,30.42,2,0,4,0.79
2013-10-12,55.8,54.3,53.6,53.7,53.2,52.5,97,96,92,30.47,30.42,0,0,3,0.00
2013-10-13,79.0,67.0,57.9,65.2,59.0,54.8,92,76,61,30.63,30.55,4,2,8,0.11
2013-10-14,64.9,60.7,57.2,61.6,58.6,55.2,97,93,88,30.66,30.59,1,0,4,0.26
2013-10-15,61.2,54.5,50.2,60.1,54.1,49.9,99,99,96,30.58,30.51,1,0,5,0.00
2013-10-16,68.9,60.1,55.4,65.2,56.3,51.1,94,87,74,30.35,30.25,4,2,9,0.26
2013-10-17,62.8,56.9,55.0,60.7,54.7,51.7,96,92,88,30.28,30.26,2,0,5,0.04
2013-10-18,54.7,47.6,45.1,48.2,45.0,42.2,94,91,84,30.38,30.26,3,2,8,0.00
2013-10-19,59.0,48.3,38.7,47.3,43.1,37.1,95,83,73,30.34,30.16,2,1,5,0.00
2013-10-20,69.3,55.1,37.0,46.1,38.8,33.2,99,57,40,30.39,28.53,6,2,15,0.01
2013-10-21,58.5,46.8,40.1,40.2,37.1,34.5,81,70,49,28.59,28.56,3,1,10,0.00
2013-10-22,60.3,48.1,40.5,47.5,36.6,28.6,94,68,31,28.50,28.37,6,2,12,0.18
2013-10-23,47.3,40.8,37.4,44.2,37.6,31.8,92,88,77,28.39,28.29,5,1,14,0.17
2013-10-24,43.9,36.7,35.4,39.1,33.5,28.5,95,88,77,28.55,28.45,3,1,9,0.00
2013-10-25,34.7,32.6,30.2,33.5,31.5,29.2,97,96,92,28.82,28.66,2,2,6,0.00
2013-10-26,54.1,45.3,30.6,31.2,28.1,25.1,91,54,38,28.76,28.43,8,4,14,0.00
2013-10-27,61.2,48.9,34.7,37.8,33.1,27.5,88,56,38,28.61,28.50,6,2,15,0.00
2013-10-28,64.0,43.3,31.5,41.7,34.9,28.3,93,75,42,28.77,28.62,2,0,6,0.00
2013-10-29,48.4,37.6,33.1,43.1,34.8,31.3,94,90,74,28.89,28.80,0,0,1,0.00
2013-10-30,49.1,45.4,43.5,43.5,40.3,37.6,86,82,76,28.77,28.69,2,0,2,0.00
2013-10-31,66.0,62.0,58.1,58.9,57.6,55.2,94,86,76,28.63,28.48,5,3,10,0.01
2013-11-1,70.9,59.7,50.7,57.2,49.5,41.7,92,71,42,28.26,27.92,14,4,30,0.11
2013-11-2,54.0,50.0,48.7,46.2,43.4,37.6,83,78,70,28.28,28.21,2,0,9,0.00
2013-11-3,59.2,44.3,32.0,41.8,32.6,24.0,91,66,34,28.95,28.48,4,1,7,0.00
2013-11-4,52.5,38.4,27.0,25.5,23.2,20.5,82,57,29,29.05,28.93,3,1,6,0.00
2013-11-5,45.3,41.1,37.0,30.5,28.1,24.9,65,60,54,29.02,28.94,2,0,4,0.00
2013-11-6,62.4,50.6,43.9,48.6,41.3,27.5,81,71,52,28.86,28.73,3,1,8,0.00
2013-11-7,59.4,46.6,42.6,56.9,41.3,28.9,99,82,61,28.58,28.40,7,3,16,0.52
2013-11-8,45.0,37.9,35.4,32.0,30.0,28.8,80,73,61,28.76,28.60,5,3,13,0.00
2013-11-9,62.4,48.4,27.5,37.5,28.5,21.2,85,50,26,28.79,28.49,8,3,17,0.00
2013-11-10,53.1,45.6,39.9,38.1,31.1,21.6,70,57,42,28.73,28.49,8,5,21,0.00
2013-11-11,41.9,35.9,31.8,32.6,29.7,26.8,85,78,66,28.79,28.73,5,2,14,0.00
2013-11-12,46.4,34.6,27.5,34.4,23.5,11.8,98,66,41,28.90,28.60,3,1,11,0.18
2013-11-13,43.5,32.0,21.4,25.0,22.1,18.9,93,69,39,29.01,28.88,6,2,12,0.00
2013-11-14,28.9,27.1,26.8,22.0,21.3,20.6,80,78,77,28.87,28.83,4,3,10,0.00
2013-11-15,51.6,41.8,39.4,22.7,20.7,19.3,44,43,39,28.74,28.70,4,3,10,0.00
2013-11-16,73.2,57.8,43.2,52.4,45.8,37.2,89,65,51,28.76,28.64,6,2,11,0.00
2013-11-17,63.5,58.9,53.8,60.5,53.4,47.4,92,82,72,28.57,28.10,10,4,17,0.41
2013-11-18,64.6,54.6,45.9,50.9,36.2,25.3,80,51,35,28.38,28.18,8,5,22,0.00
2013-11-19,38.3,35.2,27.1,26.6,24.7,19.4,81,65,58,28.90,28.57,7,2,16,0.00
2013-11-20,47.3,28.6,23.2,27.2,22.1,19.1,86,77,48,28.97,28.89,1,0,6,0.00
2013-11-21,64.0,44.1,33.4,41.9,29.6,17.7,67,57,36,28.94,28.76,5,1,8,0.00
2013-11-22,58.3,51.0,37.0,54.4,49.7,31.8,99,95,68,28.75,28.58,9,2,15,0.27
2013-11-23,37.8,33.1,30.6,31.5,26.6,20.9,83,77,72,28.76,28.74,4,2,11,0.00
2013-11-24,33.1,22.3,15.6,15.6,10.2,1.7,77,60,40,29.01,28.82,8,5,18,0.00
2013-11-25,44.4,29.4,13.5,14.6,9.4,1.0,79,46,24,28.98,28.73,5,2,11,0.00
2013-11-26,37.0,33.9,30.6,35.2,32.7,28.1,98,95,84,28.73,28.40,3,0,6,0.43
2013-11-27,32.9,29.6,24.3,32.7,26.5,16.9,99,88,73,28.46,28.22,2,0,4,0.01
2013-11-28,42.3,28.1,16.5,19.0,16.8,11.3,81,63,42,28.88,28.63,3,1,9,0.01
2013-11-29,49.6,36.3,24.3,26.3,21.1,18.3,82,55,35,29.10,28.91,2,0,6,0.08
2013-11-30,48.2,35.9,24.4,27.3,22.2,16.4,79,58,45,29.10,28.79,4,3,11,0.00
2013-12-1,50.4,42.6,33.3,33.4,29.7,22.5,70,60,54,28.72,28.50,4,2,10,0.00
2013-12-2,60.8,46.3,38.5,39.6,34.3,28.9,73,64,43,28.49,28.35,2,1,8,0.00
2013-12-3,67.6,45.0,37.4,47.7,39.2,35.5,97,83,41,28.43,28.37,2,0,4,0.02
2013-12-4,66.7,48.7,40.5,49.1,41.0,35.4,84,75,53,28.52,28.42,4,1,6,0.00
2013-12-5,66.6,58.4,41.2,59.6,52.5,40.7,99,82,67,28.57,28.41,5,2,12,0.74
2013-12-6,39.6,35.4,32.5,39.0,34.0,31.3,99,94,86,28.69,28.58,1,0,7,0.41
2013-12-7,43.7,30.0,25.0,28.2,22.8,15.2,99,75,48,29.01,28.76,4,0,8,0.01
2013-12-8,21.4,19.7,16.9,16.2,14.6,12.3,83,80,78,29.06,28.93,0,0,0,0.00
2013-12-9,46.2,37.4,32.9,41.8,35.0,30.1,99,91,74,28.60,28.48,5,2,14,0.15
2013-12-10,42.3,28.0,22.1,27.5,19.0,8.1,94,71,42,28.75,28.53,5,3,14,0.04
2013-12-11,34.7,25.8,17.6,16.2,14.1,11.5,80,62,50,28.84,28.74,4,3,14,0.00
2013-12-12,27.5,27.5,27.5,20.0,20.0,20.0,73,73,73,28.93,28.92,4,4,8,0.00
2013-12-13,46.9,34.6,19.0,22.0,15.8,6.0,61,46,40,30.29,28.71,5,3,11,0.00
2013-12-14,40.8,34.0,28.8,38.2,31.4,18.6,98,91,53,31.81,31.32,6,2,13,0.34
2013-12-15,43.5,29.2,26.2,43.3,25.7,21.7,99,87,76,31.48,31.23,8,0,14,0.02
2013-12-16,28.9,23.5,18.5,21.9,16.9,10.9,87,75,64,31.74,31.61,8,1,12,0.00
2013-12-17,42.8,34.0,25.2,34.0,29.4,22.9,99,84,60,31.61,31.52,4,1,9,0.08
2013-12-18,36.0,28.2,25.9,26.9,22.7,17.1,88,80,70,31.74,31.62,5,2,14,0.00
2013-12-19,64.8,49.2,27.5,37.1,29.8,18.5,77,48,41,31.70,31.63,7,4,18,0.00
2013-12-20,60.1,52.7,45.5,56.7,44.0,27.1,92,74,40,31.62,31.51,5,3,17,0.07
2013-12-21,67.8,57.6,51.8,63.6,56.1,48.8,99,95,77,31.52,31.40,4,2,13,0.71
2013-12-22,69.4,60.5,57.0,59.7,54.5,47.8,98,81,67,31.54,31.20,10,4,23,0.24
2013-12-23,50.2,36.6,30.6,47.4,32.8,20.2,99,86,65,31.86,30.39,7,3,16,0.15
2013-12-24,30.4,28.4,26.6,23.6,21.1,19.2,88,74,64,31.85,31.80,0,0,0,0.00
2013-12-25,36.9,23.0,10.8,19.5,13.2,6.8,87,66,48,32.05,31.85,3,1,6,0.00
2013-12-26,44.6,34.5,26.2,29.5,20.8,13.6,72,58,44,31.85,31.78,9,2,23,0.02
2013-12-27,44.4,35.2,32.7,41.4,25.6,22.1,91,68,63,31.94,31.36,3,2,10,0.13
2013-12-28,62.1,49.2,32.7,35.5,28.1,12.4,64,45,35,31.85,31.72,6,3,14,0.00
2013-12-29,45.1,40.7,38.5,40.5,36.2,24.0,98,86,44,31.64,31.26,5,1,9,0.46
2013-12-30,39.6,27.6,22.3,38.5,22.9,15.8,96,82,69,31.76,31.44,8,0,11,0.01
2013-12-31,26.2,24.3,22.6,22.7,18.7,13.9,93,79,63,31.86,31.65,0,0,0,0.00
2014-1-1,45.1,35.0,24.6,31.3,24.4,19.0,79,66,55,31.89,31.76,2,0,8,0.00
2014-1-2,33.8,28.7,24.8,27.1,25.5,21.5,97,88,83,31.62,31.25,1,0,4,0.00